Year,Month,Day,Hour,Minute,Value (Times are PST for temperature in C)
2014,12,10,00,00,10.50
2014,12,10,00,01,10.50
2014,12,10,00,02,10.50
2014,12,10,00,03,10.40
2014,12,10,00,04,10.40
2014,12,10,00,05,10.40
2014,12,10,00,06,10.40
2014,12,10,00,07,10.40
2014,12,10,00,08,10.40
2014,12,10,00,09,10.30
2014,12,10,00,10,10.30
2014,12,10,00,11,10.30
2014,12,10,00,12,10.30
2014,12,10,00,13,10.30
2014,12,10,00,14,10.30
2014,12,10,00,15,10.30
2014,12,10,00,16,10.20
2014,12,10,00,17,10.20
2014,12,10,00,18,10.20
2014,12,10,00,19,10.20
2014,12,10,00,20,10.20
2014,12,10,00,21,10.10
2014,12,10,00,22,10.10
2014,12,10,00,23,10.10
2014,12,10,00,24,10.10
2014,12,10,00,25,10.10
2014,12,10,00,26,10.10
2014,12,10,00,27,10.00
2014,12,10,00,28,10.00
2014,12,10,00,29,10.00
2014,12,10,00,30,10.00
2014,12,10,00,31,9.90
2014,12,10,00,32,9.90
2014,12,10,00,33,9.90
2014,12,10,00,34,9.90
2014,12,10,00,35,9.90
2014,12,10,00,36,9.90
2014,12,10,00,37,9.90
2014,12,10,00,38,9.90
2014,12,10,00,39,9.90
2014,12,10,00,40,9.90
2014,12,10,00,41,9.90
2014,12,10,00,42,9.90
2014,12,10,00,43,9.90
2014,12,10,00,44,9.80
2014,12,10,00,45,9.80
2014,12,10,00,46,9.80
2014,12,10,00,47,9.80
2014,12,10,00,48,9.80
2014,12,10,00,49,9.80
2014,12,10,00,50,9.80
2014,12,10,00,51,9.80
2014,12,10,00,52,9.80
2014,12,10,00,53,9.80
2014,12,10,00,54,9.80
2014,12,10,00,55,9.80
2014,12,10,00,56,9.80
2014,12,10,00,57,9.80
2014,12,10,00,58,9.80
2014,12,10,00,59,9.80
2014,12,10,01,00,9.70
2014,12,10,01,01,9.70
2014,12,10,01,02,9.70
2014,12,10,01,03,9.70
2014,12,10,01,04,9.70
2014,12,10,01,05,9.70
2014,12,10,01,06,9.70
2014,12,10,01,07,9.70
2014,12,10,01,08,9.70
2014,12,10,01,09,9.70
2014,12,10,01,10,9.70
2014,12,10,01,11,9.70
2014,12,10,01,12,9.70
2014,12,10,01,13,9.70
2014,12,10,01,14,9.70
2014,12,10,01,15,9.70
2014,12,10,01,16,9.80
2014,12,10,01,17,9.80
2014,12,10,01,18,9.80
2014,12,10,01,19,9.80
2014,12,10,01,20,9.80
2014,12,10,01,21,9.80
2014,12,10,01,22,9.80
2014,12,10,01,23,9.80
2014,12,10,01,24,9.80
2014,12,10,01,25,9.90
2014,12,10,01,26,9.90
2014,12,10,01,27,9.90
2014,12,10,01,28,9.90
2014,12,10,01,29,10.00
2014,12,10,01,30,10.00
2014,12,10,01,31,10.10
2014,12,10,01,32,10.10
2014,12,10,01,33,10.10
2014,12,10,01,34,10.10
2014,12,10,01,35,10.10
2014,12,10,01,36,10.10
2014,12,10,01,37,10.20
2014,12,10,01,38,10.20
2014,12,10,01,39,10.20
2014,12,10,01,40,10.20
2014,12,10,01,41,10.30
2014,12,10,01,42,10.30
2014,12,10,01,43,10.30
2014,12,10,01,44,10.30
2014,12,10,01,45,10.30
2014,12,10,01,46,10.30
2014,12,10,01,47,10.30
2014,12,10,01,48,10.30
2014,12,10,01,49,10.30
2014,12,10,01,50,10.30
2014,12,10,01,51,10.30
2014,12,10,01,52,10.30
2014,12,10,01,53,10.30
2014,12,10,01,54,10.30
2014,12,10,01,55,10.30
2014,12,10,01,56,10.30
2014,12,10,01,57,10.30
2014,12,10,01,58,10.30
2014,12,10,01,59,10.30
2014,12,10,02,00,10.30
2014,12,10,02,01,10.30
2014,12,10,02,02,10.30
2014,12,10,02,03,10.30
2014,12,10,02,04,10.30
2014,12,10,02,05,10.30
2014,12,10,02,06,10.30
2014,12,10,02,07,10.30
2014,12,10,02,08,10.30
2014,12,10,02,09,10.30
2014,12,10,02,10,10.30
2014,12,10,02,11,10.30
